Location: Eekwerd
(53.3234°N, 6.7984°E)
Time: 20:33:11
(UTC+00:00)

Helios 1B rocket - Pass Details

Date: 15 May 2026
Orbit: 459 x 465 km, 98.2° (Epoch: 8 June)

Event Time Altitude Azimuth Distance (km) Brightness Sun altitude
Exits shadow 23:00:27 23° 234° (SW) 1,045 3.5 -17.4°
Maximum altitude 23:01:29 27° 264° (W) 943 3.5 -17.4°
Drops below altitude 10° 23:04:31 10° 324° (NW) 1,642 5.6 -17.4°
Sets 23:06:49 0° 337° (NNW) 2,524 7.1 -17.5°
